Date String (YYYY-MM-DD hh:mm:ss) UTC,Instrument flags,Ambient pressure (hPa),Sample flow (lpm),Bypass flow (lpm),Sample temperature (°C),Ambient temperature (°C),ASC tube jacket temperature (°C),LED temperature (°C),Box temperature (°C),Sample RH (%),Span deviation,Mass concentration (μg/m³),Mass concentration (μg/m³),Mass concentration (μg/m³)
DateTimeUTC,F1_M11,P_M11,Q1_M11,Q2_M11,T1_M11,T2_M11,T3_M11,T4_M11,T5_M11,U1_M11,ZSPAN_M11,X0_M11,X2_M11,X1_M11
2021-12-06 04:00:00,,0831.0,4.99,0.00,21.7,21.1,00.0,30.9,23.2,09.2,0000.0,0012.86,0002.32,0001.08
2021-12-06 04:01:00,,0831.0,5.02,0.00,21.7,21.0,00.0,30.9,23.2,09.2,0000.0,0012.55,0002.28,0001.08
2021-12-06 04:02:00,,0831.0,4.99,0.00,21.7,21.0,00.0,30.9,23.2,09.2,0000.0,0012.77,0002.31,0001.07
2021-12-06 04:03:00,,0831.1,5.00,0.00,21.6,21.0,00.0,30.9,23.2,09.2,0000.0,0012.55,0002.31,0001.06
2021-12-06 04:04:00,,0831.0,5.01,0.00,21.6,20.9,00.0,30.9,23.1,09.2,0000.0,0013.09,0002.34,0001.05
2021-12-06 04:05:00,,0831.0,4.99,0.00,21.6,21.0,00.0,30.8,23.1,09.2,0000.0,0014.41,0002.32,0001.06
2021-12-06 04:06:00,,0831.0,5.00,0.00,21.7,21.5,00.0,30.9,23.4,09.1,0000.0,0013.87,0002.26,0001.06
2021-12-06 04:07:00,,0831.0,5.00,0.00,21.8,22.3,00.0,30.9,23.7,09.0,0000.0,0013.59,0002.20,0001.06
2021-12-06 04:08:00,,0831.0,5.00,0.00,22.0,22.6,00.0,30.9,23.9,09.0,0000.0,0013.53,0002.22,0001.08
2021-12-06 04:09:00,,0831.0,5.01,0.00,22.0,22.4,00.0,30.9,23.9,08.9,0000.0,0012.90,0002.24,0001.10
2021-12-06 04:10:00,,0831.0,5.00,0.00,22.0,22.2,00.0,30.9,23.8,08.9,0000.0,0012.81,0002.27,0001.10
2021-12-06 04:11:00,,0830.9,5.00,0.00,22.0,22.0,00.0,31.0,23.7,08.9,0000.0,0012.96,0002.26,0001.08
2021-12-06 04:12:00,,0830.9,5.00,0.00,22.0,21.8,00.0,31.0,23.6,08.9,0000.0,0012.52,0002.24,0001.06
2021-12-06 04:13:00,,0831.0,4.99,0.00,21.9,21.7,00.0,31.0,23.6,09.0,0000.0,0011.71,0002.17,0001.09
2021-12-06 04:14:00,,0831.0,5.00,0.00,21.9,21.5,00.0,31.0,23.5,08.9,0000.0,0011.77,0002.15,0001.09
2021-12-06 04:15:00,,0831.0,5.00,0.00,21.9,21.4,00.0,31.0,23.5,08.9,0000.0,0010.83,0002.09,0001.07
2021-12-06 04:16:00,,0831.0,5.01,0.00,21.9,21.4,00.0,30.9,23.5,09.0,0000.0,0009.30,0002.08,0001.07
2021-12-06 04:17:00,,0831.0,4.99,0.00,21.8,21.3,00.0,30.9,23.4,08.9,0000.0,0008.56,0002.13,0001.08
2021-12-06 04:18:00,,0831.0,5.00,0.00,21.8,21.2,00.0,30.9,23.4,08.9,0000.0,0009.22,0002.22,0001.09
2021-12-06 04:19:00,,0831.0,5.00,0.00,21.8,21.2,00.0,30.9,23.3,08.9,0000.0,0009.54,0002.18,0001.07
2021-12-06 04:20:00,,0830.9,4.99,0.00,21.8,21.1,00.0,30.9,23.4,08.9,0000.0,0009.19,0002.23,0001.05
2021-12-06 04:21:00,,0830.9,5.01,0.00,21.8,21.1,00.0,30.9,23.3,08.9,0000.0,0008.97,0002.25,0001.04
2021-12-06 04:22:00,,0831.0,4.99,0.00,21.7,21.1,00.0,30.9,23.3,08.9,0000.0,0008.83,0002.20,0001.05
2021-12-06 04:23:00,,0831.0,5.00,0.00,21.7,21.0,00.0,30.9,23.2,08.9,0000.0,0008.99,0002.20,0001.06
2021-12-06 04:24:00,,0830.9,4.99,0.00,21.7,21.2,00.0,30.9,23.3,09.0,0000.0,0009.01,0002.17,0001.05
2021-12-06 04:25:00,,0831.0,5.01,0.00,21.8,21.8,00.0,30.9,23.5,09.0,0000.0,0008.61,0002.16,0001.03
2021-12-06 04:26:00,,0830.9,4.99,0.00,22.0,22.6,00.0,30.9,23.9,08.9,0000.0,0008.98,0002.17,0001.02
2021-12-06 04:27:00,,0830.9,5.01,0.00,22.1,23.1,00.0,31.0,24.1,08.8,0000.0,0008.91,0002.13,0001.03
2021-12-06 04:28:00,,0830.9,5.00,0.00,22.2,22.8,00.0,31.0,24.1,08.7,0000.0,0009.20,0002.12,0001.03
2021-12-06 04:29:00,,0830.9,4.99,0.00,22.1,22.5,00.0,31.0,23.9,08.7,0000.0,0009.07,0002.05,0001.03
2021-12-06 04:30:00,,0830.8,5.00,0.00,22.1,22.3,00.0,31.0,23.8,08.7,0000.0,0008.50,0002.08,0001.02
2021-12-06 04:31:00,,0830.9,5.00,0.00,22.1,22.0,00.0,31.0,23.7,08.7,0000.0,0008.49,0002.03,0001.02
2021-12-06 04:32:00,,0830.9,5.00,0.00,22.0,21.8,00.0,31.0,23.6,08.7,0000.0,0008.64,0002.01,0001.02
2021-12-06 04:33:00,,0830.9,5.01,0.00,22.0,21.6,00.0,31.0,23.5,08.7,0000.0,0008.57,0002.03,0001.01
2021-12-06 04:34:00,,0830.9,4.99,0.00,21.9,21.5,00.0,31.0,23.5,08.7,0000.0,0008.25,0001.97,0001.00
2021-12-06 04:35:00,,0830.8,5.01,0.00,21.9,21.4,00.0,31.0,23.5,08.7,0000.0,0008.26,0001.98,0001.00
2021-12-06 04:36:00,,0830.9,5.00,0.00,21.9,21.3,00.0,31.0,23.4,08.7,0000.0,0008.40,0001.99,0001.01
2021-12-06 04:37:00,,0830.9,4.99,0.00,21.8,21.1,00.0,31.0,23.3,08.7,0000.0,0008.36,0001.92,0001.01
2021-12-06 04:38:00,,0830.9,5.00,0.00,21.8,21.0,00.0,30.9,23.3,08.7,0000.0,0008.15,0001.88,0000.98
2021-12-06 04:39:00,,0830.8,4.99,0.00,21.7,21.0,00.0,30.9,23.3,08.8,0000.0,0007.80,0001.84,0000.97
2021-12-06 04:40:00,,0830.7,5.00,0.00,21.7,20.9,00.0,30.9,23.2,08.8,0000.0,0008.28,0001.79,0000.94
2021-12-06 04:41:00,,0830.7,4.99,0.00,21.6,20.9,00.0,30.9,23.2,08.8,0000.0,0008.13,0001.72,0000.94
2021-12-06 04:42:00,,0830.7,5.01,0.00,21.6,20.8,00.0,30.9,23.1,08.8,0000.0,0008.00,0001.73,0000.96
2021-12-06 04:43:00,,0830.8,5.00,0.00,21.6,21.2,00.0,30.9,23.2,08.8,0000.0,0007.90,0001.73,0000.99
2021-12-06 04:44:00,,0830.9,5.01,0.00,21.8,22.0,00.0,30.9,23.5,08.8,0000.0,0008.17,0001.75,0000.99
2021-12-06 04:45:00,,0830.9,5.01,0.00,21.9,22.8,00.0,30.9,23.9,08.8,0000.0,0008.73,0001.80,0001.00
2021-12-06 04:46:00,,0830.8,5.00,0.00,22.0,22.9,00.0,31.0,24.0,08.7,0000.0,0008.97,0001.84,0001.00
2021-12-06 04:47:00,,0830.8,4.99,0.00,22.0,22.5,00.0,31.0,23.9,08.7,0000.0,0008.78,0001.84,0001.00
2021-12-06 04:48:00,,0830.8,5.01,0.00,22.0,22.2,00.0,31.0,23.7,08.7,0000.0,0008.42,0001.94,0001.00
2021-12-06 04:49:00,,0830.8,4.99,0.00,21.9,21.9,00.0,31.0,23.6,08.7,0000.0,0008.60,0001.98,0001.02
2021-12-06 04:50:00,,0830.9,5.00,0.00,21.9,21.7,00.0,31.0,23.5,08.7,0000.0,0008.69,0001.94,0001.02
2021-12-06 04:51:00,,0830.9,5.00,0.00,21.9,21.6,00.0,31.0,23.4,08.7,0000.0,0008.58,0001.97,0001.03
2021-12-06 04:52:00,,0830.9,4.99,0.00,21.8,21.4,00.0,30.9,23.4,08.8,0000.0,0008.38,0001.97,0001.03
2021-12-06 04:53:00,,0830.9,5.00,0.00,21.8,21.3,00.0,30.9,23.3,08.9,0000.0,0008.42,0001.97,0001.01
2021-12-06 04:54:00,,0830.9,4.99,0.00,21.7,21.2,00.0,30.9,23.2,09.0,0000.0,0008.47,0001.96,0000.99
2021-12-06 04:55:00,,0830.9,5.01,0.00,21.7,20.9,00.0,30.9,23.2,09.0,0000.0,0008.44,0001.91,0000.99
2021-12-06 04:56:00,,0830.9,4.99,0.00,21.6,20.7,00.0,30.8,23.1,09.0,0000.0,0007.82,0001.89,0001.00
2021-12-06 04:57:00,,0830.8,5.01,0.00,21.6,20.6,00.0,30.8,23.0,09.1,0000.0,0008.18,0001.84,0000.99
2021-12-06 04:58:00,,0830.8,5.00,0.00,21.5,20.4,00.0,30.8,23.0,09.1,0000.0,0008.80,0001.81,0000.98
2021-12-06 04:59:00,,0830.9,5.01,0.00,21.4,20.3,00.0,30.7,22.9,09.1,0000.0,0009.10,0001.71,0000.97
